| time (UTC) | temp F | wind direction | speed knots | gust knots | rain 1hr in | rain 24hr in | rain mn in | humidity % | barometer mb |
| 20260505001754 | 67 | 189 | 0.0 | 0.0 | 0.00 | 0.00 | 0.00 | 50 | 1015.7 |
| 20260505001252 | 69 | 190 | 0.0 | 0.0 | 0.00 | 0.00 | 0.00 | 48 | 1015.8 |
| 20260505000749 | 69 | 189 | 0.0 | 0.0 | 0.00 | 0.00 | 0.00 | 45 | 1015.3 |
| 20260505000246 | 70 | 189 | 0.9 | 0.9 | 0.00 | 0.00 | 0.00 | 43 | 1015.4 |
| 20260504235742 | 71 | 194 | 0.9 | 0.9 | 0.00 | 0.00 | 0.00 | 41 | 1015.3 |
| 20260504235239 | 71 | 180 | 0.0 | 0.9 | 0.00 | 0.00 | 0.00 | 40 | 1015.3 |
| 20260504234736 | 71 | 188 | 0.9 | 0.9 | 0.00 | 0.00 | 0.00 | 39 | 1015.3 |
| 20260504234228 | 72 | 194 | 0.0 | 0.0 | 0.00 | 0.00 | 0.00 | 40 | 1015.0 |
| 20260504233723 | 72 | 204 | 0.9 | 1.7 | 0.00 | 0.00 | 0.00 | 39 | 1014.9 |
| 20260504233219 | 73 | 201 | 1.7 | 1.7 | 0.00 | 0.00 | 0.00 | 37 | 1014.9 |
| 20260504232717 | 74 | 206 | 0.9 | 0.9 | 0.00 | 0.00 | 0.00 | 35 | 1015.0 |
| 20260504232213 | 74 | 238 | 0.9 | 1.7 | 0.00 | 0.00 | 0.00 | 34 | 1015.1 |
| 20260504231710 | 75 | 207 | 0.0 | 0.9 | 0.00 | 0.00 | 0.00 | 35 | 1014.7 |
| 20260504231207 | 75 | 192 | 1.7 | 1.7 | 0.00 | 0.00 | 0.00 | 33 | 1015.0 |
| 20260504230702 | 75 | 222 | 0.9 | 0.9 | 0.00 | 0.00 | 0.00 | 33 | 1014.8 |
| 20260504230202 | 75 | 259 | 1.7 | 1.7 | 0.00 | 0.00 | 0.00 | 34 | 1014.7 |
| 20260504225700 | 75 | 197 | 1.7 | 1.7 | 0.00 | 0.00 | 0.00 | 33 | 1014.8 |
| 20260504225155 | 76 | 227 | 3.5 | 4.3 | 0.00 | 0.00 | 0.00 | 32 | 1014.9 |
| 20260504224653 | 76 | 201 | 1.7 | 1.7 | 0.00 | 0.00 | 0.00 | 31 | 1015.0 |
| 20260504224149 | 77 | 222 | 1.7 | 2.6 | 0.00 | 0.00 | 0.00 | 32 | 1014.8 |
| 20260504223647 | 77 | 209 | 0.9 | 1.7 | 0.00 | 0.00 | 0.00 | 31 | 1014.9 |
| 20260504223142 | 77 | 247 | 4.3 | 6.1 | 0.00 | 0.00 | 0.00 | 31 | 1015.0 |
| 20260504222639 | 77 | 221 | 1.7 | 1.7 | 0.00 | 0.00 | 0.00 | 31 | 1015.1 |
| 20260504222136 | 76 | 184 | 3.5 | 5.2 | 0.00 | 0.00 | 0.00 | 32 | 1014.9 |
| 20260504221633 | 76 | 170 | 1.7 | 2.6 | 0.00 | 0.00 | 0.00 | 32 | 1014.9 |
| 20260504221130 | 77 | 190 | 2.6 | 2.6 | 0.00 | 0.00 | 0.00 | 31 | 1015.0 |
| 20260504220626 | 77 | 228 | 3.5 | 5.2 | 0.00 | 0.00 | 0.00 | 31 | 1015.1 |
| 20260504220125 | 77 | 250 | 4.3 | 5.2 | 0.00 | 0.00 | 0.00 | 30 | 1015.1 |
| 20260504215621 | 78 | 176 | 0.9 | 0.9 | 0.00 | 0.00 | 0.00 | 29 | 1015.1 |
| 20260504215118 | 77 | 217 | 2.6 | 2.6 | 0.00 | 0.00 | 0.00 | 30 | 1015.0 |
| 20260504214614 | 78 | 221 | 3.5 | 5.2 | 0.00 | 0.00 | 0.00 | 29 | 1015.0 |
| 20260504214110 | 78 | 251 | 1.7 | 2.6 | 0.00 | 0.00 | 0.00 | 28 | 1015.1 |
| 20260504213607 | 78 | 237 | 2.6 | 2.6 | 0.00 | 0.00 | 0.00 | 29 | 1015.2 |
| 20260504213104 | 78 | 238 | 6.1 | 7.0 | 0.00 | 0.00 | 0.00 | 28 | 1015.1 |
| 20260504212559 | 78 | 170 | 2.6 | 4.3 | 0.00 | 0.00 | 0.00 | 28 | 1015.2 |
| 20260504212057 | 79 | 160 | 4.3 | 6.1 | 0.00 | 0.00 | 0.00 | 27 | 1015.4 |
| 20260504211554 | 78 | 243 | 4.3 | 5.2 | 0.00 | 0.00 | 0.00 | 27 | 1015.0 |
| 20260504211051 | 78 | 246 | 1.7 | 1.7 | 0.00 | 0.00 | 0.00 | 29 | 1015.3 |
| 20260504210548 | 78 | 232 | 3.5 | 4.3 | 0.00 | 0.00 | 0.00 | 28 | 1015.4 |
| 20260504210044 | 78 | 204 | 1.7 | 1.7 | 0.00 | 0.00 | 0.00 | 29 | 1015.1 |
| 20260504205542 | 78 | 226 | 2.6 | 2.6 | 0.00 | 0.00 | 0.00 | 29 | 1015.0 |
| 20260504205040 | 78 | 199 | 1.7 | 1.7 | 0.00 | 0.00 | 0.00 | 28 | 1015.2 |
| 20260504204538 | 79 | 242 | 1.7 | 2.6 | 0.00 | 0.00 | 0.00 | 29 | 1015.3 |
| 20260504204037 | 78 | 204 | 2.6 | 4.3 | 0.00 | 0.00 | 0.00 | 31 | 1015.4 |
| 20260504203534 | 78 | 198 | 1.7 | 1.7 | 0.00 | 0.00 | 0.00 | 31 | 1015.4 |
| 20260504203032 | 78 | 276 | 1.7 | 1.7 | 0.00 | 0.00 | 0.00 | 33 | 1015.6 |
| 20260504202527 | 78 | 210 | 6.1 | 7.8 | 0.00 | 0.00 | 0.00 | 32 | 1015.7 |
| 20260504202024 | 78 | 211 | 2.6 | 4.3 | 0.00 | 0.00 | 0.00 | 34 | 1015.8 |
| 20260504201521 | 78 | 211 | 4.3 | 5.2 | 0.00 | 0.00 | 0.00 | 33 | 1015.6 |
| 20260504201019 | 78 | 276 | 2.6 | 5.2 | 0.00 | 0.00 | 0.00 | 32 | 1015.3 |
| 20260504200515 | 78 | 184 | 4.3 | 5.2 | 0.00 | 0.00 | 0.00 | 33 | 1015.8 |
| 20260504200012 | 78 | 220 | 0.9 | 0.9 | 0.00 | 0.00 | 0.00 | 33 | 1015.7 |
| 20260504195508 | 79 | 247 | 5.2 | 6.1 | 0.00 | 0.00 | 0.00 | 33 | 1015.9 |
| 20260504195005 | 78 | 191 | 1.7 | 2.6 | 0.00 | 0.00 | 0.00 | 36 | 1015.8 |
| 20260504194501 | 78 | 162 | 6.1 | 6.1 | 0.00 | 0.00 | 0.00 | 32 | 1015.9 |
| 20260504193956 | 78 | 246 | 4.3 | 5.2 | 0.00 | 0.00 | 0.00 | 32 | 1015.9 |
| 20260504193454 | 78 | 212 | 1.7 | 1.7 | 0.00 | 0.00 | 0.00 | 32 | 1016.2 |
| 20260504192953 | 77 | 329 | 3.5 | 5.2 | 0.00 | 0.00 | 0.00 | 31 | 1016.2 |
| 20260504192449 | 77 | 155 | 0.9 | 1.7 | 0.00 | 0.00 | 0.00 | 32 | 1016.3 |
| 20260504191948 | 77 | 222 | 4.3 | 6.1 | 0.00 | 0.00 | 0.00 | 32 | 1016.5 |
| 20260504191446 | 77 | 161 | 6.1 | 6.1 | 0.00 | 0.00 | 0.00 | 30 | 1016.3 |
| 20260504190941 | 78 | 222 | 1.7 | 2.6 | 0.00 | 0.00 | 0.00 | 33 | 1016.2 |
| 20260504190437 | 78 | 239 | 3.5 | 4.3 | 0.00 | 0.00 | 0.00 | 32 | 1016.5 |
| 20260504185934 | 77 | 203 | 1.7 | 1.7 | 0.00 | 0.00 | 0.00 | 34 | 1016.5 |
| 20260504185431 | 77 | 214 | 1.7 | 1.7 | 0.00 | 0.00 | 0.00 | 40 | 1016.4 |
| 20260504184927 | 76 | 294 | 0.9 | 1.7 | 0.00 | 0.00 | 0.00 | 32 | 1016.7 |
| 20260504184423 | 77 | 215 | 3.5 | 4.3 | 0.00 | 0.00 | 0.00 | 32 | 1016.7 |
| 20260504183919 | 76 | 142 | 1.7 | 1.7 | 0.00 | 0.00 | 0.00 | 33 | 1016.6 |
| 20260504183416 | 76 | 303 | 3.5 | 4.3 | 0.00 | 0.00 | 0.00 | 31 | 1016.9 |
| 20260504182914 | 76 | 193 | 0.9 | 1.7 | 0.00 | 0.00 | 0.00 | 32 | 1016.8 |
| 20260504182411 | 77 | 224 | 3.5 | 4.3 | 0.00 | 0.00 | 0.00 | 37 | 1016.9 |
| 20260504181908 | 76 | 311 | 2.6 | 2.6 | 0.00 | 0.00 | 0.00 | 36 | 1016.9 |
| 20260504181405 | 76 | 337 | 3.5 | 4.3 | 0.00 | 0.00 | 0.00 | 32 | 1017.1 |
| 20260504180904 | 76 | 108 | 0.9 | 1.7 | 0.00 | 0.00 | 0.00 | 32 | 1016.9 |
| 20260504180402 | 76 | 192 | 2.6 | 4.3 | 0.00 | 0.00 | 0.00 | 32 | 1017.2 |
| 20260504175900 | 74 | 217 | 4.3 | 5.2 | 0.00 | 0.00 | 0.00 | 34 | 1017.1 |
| 20260504175356 | 75 | 237 | 4.3 | 5.2 | 0.00 | 0.00 | 0.00 | 34 | 1017.0 |
| 20260504174854 | 76 | 260 | 0.9 | 1.7 | 0.00 | 0.00 | 0.00 | 36 | 1017.0 |
| 20260504174352 | 74 | 276 | 2.6 | 2.6 | 0.00 | 0.00 | 0.00 | 36 | 1017.2 |
| 20260504173849 | 74 | 296 | 3.5 | 5.2 | 0.00 | 0.00 | 0.00 | 36 | 1017.3 |
| 20260504173345 | 74 | 230 | 1.7 | 1.7 | 0.00 | 0.00 | 0.00 | 37 | 1017.5 |
| 20260504172842 | 74 | 268 | 3.5 | 4.3 | 0.00 | 0.00 | 0.00 | 36 | 1017.6 |
| 20260504172339 | 75 | 166 | 2.6 | 2.6 | 0.00 | 0.00 | 0.00 | 38 | 1017.3 |
| 20260504171835 | 76 | 319 | 0.9 | 1.7 | 0.00 | 0.00 | 0.00 | 36 | 1017.7 |
| 20260504171332 | 75 | 182 | 2.6 | 4.3 | 0.00 | 0.00 | 0.00 | 39 | 1017.4 |
| 20260504170829 | 73 | 261 | 2.6 | 2.6 | 0.00 | 0.00 | 0.00 | 37 | 1017.7 |
| 20260504170326 | 74 | 247 | 1.7 | 4.3 | 0.00 | 0.00 | 0.00 | 39 | 1017.8 |
| 20260504160244 | 70 | 300 | 2.6 | 2.6 | 0.00 | 0.00 | 0.00 | 39 | 1018.8 |
| 20260504150710 | 69 | 329 | 1.7 | 4.3 | 0.00 | 0.00 | 0.00 | 44 | 1019.3 |
| 20260504150207 | 70 | 160 | 1.7 | 1.7 | 0.00 | 0.00 | 0.00 | 46 | 1019.3 |
| 20260504141136 | 65 | 166 | 0.9 | 1.7 | 0.00 | 0.00 | 0.00 | 62 | 1019.3 |
| 20260504140632 | 64 | 172 | 0.9 | 0.9 | 0.00 | 0.00 | 0.00 | 60 | 1019.0 |
| 20260504140128 | 64 | 190 | 1.7 | 1.7 | 0.00 | 0.00 | 0.00 | 62 | 1019.1 |
| 20260504130556 | 57 | 183 | 0.0 | 0.0 | 0.00 | 0.00 | 0.00 | 71 | 1019.2 |
| 20260504110438 | 42 | 196 | 0.0 | 0.0 | 0.00 | 0.00 | 0.00 | 98 | 1018.9 |
| 20260504100401 | 43 | 209 | 0.0 | 0.0 | 0.00 | 0.00 | 0.00 | 98 | 1018.4 |
| 20260504081748 | 44 | 173 | 0.0 | 0.0 | 0.00 | 0.00 | 0.00 | 94 | 1018.1 |
| 20260504081245 | 45 | 203 | 0.0 | 0.0 | 0.00 | 0.00 | 0.00 | 94 | 1018.2 |
| 20260504080741 | 45 | 203 | 0.0 | 0.0 | 0.00 | 0.00 | 0.00 | 94 | 1018.0 |
| 20260504080238 | 45 | 203 | 0.0 | 0.0 | 0.00 | 0.00 | 0.00 | 94 | 1017.9 |
| 20260504070205 | 46 | 201 | 0.0 | 0.0 | 0.00 | 0.00 | 0.00 | 90 | 1018.0 |
| 20260504060126 | 49 | 201 | 0.0 | 0.0 | 0.00 | 0.00 | 0.00 | 86 | 1018.6 |
| 20260504050554 | 50 | 197 | 0.0 | 0.0 | 0.00 | 0.00 | 0.00 | 84 | 1018.4 |
| 20260504045548 | 50 | 197 | 0.0 | 0.0 | 0.00 | 0.00 | 0.00 | 83 | 1018.5 |
| 20260504045043 | 51 | 198 | 0.0 | 0.0 | 0.00 | 0.00 | 0.00 | 81 | 1018.4 |
| 20260504044541 | 51 | 197 | 0.0 | 0.0 | 0.00 | 0.00 | 0.00 | 81 | 1018.2 |
| 20260504044038 | 51 | 197 | 0.0 | 0.0 | 0.00 | 0.00 | 0.00 | 78 | 1018.3 |
| 20260504043535 | 51 | 207 | 0.0 | 0.0 | 0.00 | 0.00 | 0.00 | 79 | 1018.5 |
| 20260504043032 | 51 | 202 | 0.0 | 0.0 | 0.00 | 0.00 | 0.00 | 78 | 1018.3 |
| 20260504042529 | 50 | 198 | 0.0 | 0.0 | 0.00 | 0.00 | 0.00 | 81 | 1018.5 |
| 20260504042026 | 50 | 194 | 0.0 | 0.0 | 0.00 | 0.00 | 0.00 | 82 | 1018.6 |
| 20260504041522 | 50 | 195 | 0.0 | 0.0 | 0.00 | 0.00 | 0.00 | 82 | 1018.6 |
| 20260504041018 | 51 | 195 | 0.0 | 0.0 | 0.00 | 0.00 | 0.00 | 82 | 1018.6 |
| 20260504040516 | 51 | 196 | 0.0 | 0.0 | 0.00 | 0.00 | 0.00 | 81 | 1018.6 |
| 20260504040012 | 51 | 196 | 0.0 | 0.0 | 0.00 | 0.00 | 0.00 | 80 | 1018.7 |
| 20260504035509 | 51 | 196 | 0.0 | 0.0 | 0.00 | 0.00 | 0.00 | 79 | 1018.9 |
| 20260504035005 | 51 | 196 | 0.0 | 0.0 | 0.00 | 0.00 | 0.00 | 78 | 1018.8 |
| 20260504034503 | 51 | 196 | 0.0 | 0.0 | 0.00 | 0.00 | 0.00 | 78 | 1018.5 |
| 20260504034000 | 51 | 194 | 0.0 | 0.0 | 0.00 | 0.00 | 0.00 | 78 | 1018.7 |
| 20260504033458 | 51 | 194 | 0.0 | 0.0 | 0.00 | 0.00 | 0.00 | 77 | 1018.7 |
| 20260504032955 | 51 | 194 | 0.0 | 0.0 | 0.00 | 0.00 | 0.00 | 76 | 1018.8 |
| 20260504032452 | 51 | 195 | 0.0 | 0.0 | 0.00 | 0.00 | 0.00 | 76 | 1018.7 |
| 20260504031948 | 51 | 195 | 0.0 | 0.0 | 0.00 | 0.00 | 0.00 | 76 | 1018.6 |
| 20260504031445 | 52 | 198 | 0.0 | 0.0 | 0.00 | 0.00 | 0.00 | 75 | 1018.7 |
| 20260504030942 | 52 | 190 | 0.0 | 0.0 | 0.00 | 0.00 | 0.00 | 75 | 1018.6 |
| 20260504030439 | 52 | 189 | 0.0 | 0.0 | 0.00 | 0.00 | 0.00 | 74 | 1018.5 |
| 20260504025935 | 52 | 189 | 0.0 | 0.0 | 0.00 | 0.00 | 0.00 | 73 | 1018.8 |
| 20260504025432 | 52 | 190 | 0.0 | 0.0 | 0.00 | 0.00 | 0.00 | 72 | 1018.7 |
| 20260504024929 | 52 | 190 | 0.0 | 0.0 | 0.00 | 0.00 | 0.00 | 73 | 1018.7 |
| 20260504024426 | 52 | 189 | 0.0 | 0.0 | 0.00 | 0.00 | 0.00 | 72 | 1018.6 |
| 20260504023923 | 52 | 190 | 0.0 | 0.0 | 0.00 | 0.00 | 0.00 | 72 | 1018.6 |
| 20260504023419 | 53 | 189 | 0.0 | 0.0 | 0.00 | 0.00 | 0.00 | 72 | 1018.5 |
| 20260504022915 | 53 | 189 | 0.0 | 0.0 | 0.00 | 0.00 | 0.00 | 71 | 1018.3 |
| 20260504022412 | 53 | 189 | 0.0 | 0.0 | 0.00 | 0.00 | 0.00 | 71 | 1018.7 |
| 20260504021908 | 53 | 190 | 0.0 | 0.0 | 0.00 | 0.00 | 0.00 | 70 | 1018.2 |
| 20260504021405 | 53 | 189 | 0.0 | 0.0 | 0.00 | 0.00 | 0.00 | 70 | 1018.3 |
| 20260504020729 | 54 | 189 | 0.0 | 0.0 | 0.00 | 0.00 | 0.00 | 69 | 1018.1 |
| 20260504020226 | 54 | 189 | 0.0 | 0.0 | 0.00 | 0.00 | 0.00 | 69 | 1018.1 |
| 20260504015722 | 54 | 189 | 0.0 | 0.0 | 0.00 | 0.00 | 0.00 | 68 | 1018.3 |
| 20260504015219 | 54 | 189 | 0.0 | 0.0 | 0.00 | 0.00 | 0.00 | 70 | 1017.9 |
| 20260504014714 | 54 | 189 | 0.0 | 0.0 | 0.00 | 0.00 | 0.00 | 68 | 1017.9 |
| 20260504014211 | 54 | 189 | 0.0 | 0.0 | 0.00 | 0.00 | 0.00 | 67 | 1018.0 |
| 20260504013709 | 54 | 190 | 0.0 | 0.0 | 0.00 | 0.00 | 0.00 | 67 | 1017.6 |
| 20260504013206 | 54 | 190 | 0.0 | 0.0 | 0.00 | 0.00 | 0.00 | 67 | 1017.7 |
| 20260504012703 | 55 | 190 | 0.0 | 0.0 | 0.00 | 0.00 | 0.00 | 66 | 1017.6 |
| 20260504012201 | 55 | 189 | 0.0 | 0.0 | 0.00 | 0.00 | 0.00 | 66 | 1017.7 |
| 20260504011658 | 55 | 189 | 0.0 | 0.0 | 0.00 | 0.00 | 0.00 | 64 | 1017.7 |
| 20260504011154 | 55 | 190 | 0.0 | 0.9 | 0.00 | 0.00 | 0.00 | 64 | 1017.8 |
| 20260504010650 | 55 | 190 | 0.0 | 0.9 | 0.00 | 0.00 | 0.00 | 63 | 1017.5 |
| 20260504010145 | 56 | 190 | 0.9 | 0.9 | 0.00 | 0.00 | 0.00 | 63 | 1017.5 |
| 20260504005643 | 57 | 189 | 0.9 | 0.9 | 0.00 | 0.00 | 0.00 | 62 | 1017.5 |
| 20260504005139 | 57 | 189 | 0.0 | 0.9 | 0.00 | 0.00 | 0.00 | 60 | 1017.6 |
| 20260504004638 | 57 | 189 | 0.0 | 0.9 | 0.00 | 0.00 | 0.00 | 60 | 1017.3 |
| 20260504004134 | 58 | 189 | 0.9 | 0.9 | 0.00 | 0.00 | 0.00 | 58 | 1017.5 |
| 20260504003631 | 58 | 192 | 0.0 | 0.0 | 0.00 | 0.00 | 0.00 | 57 | 1017.5 |
| 20260504003128 | 59 | 198 | 0.9 | 0.9 | 0.00 | 0.00 | 0.00 | 56 | 1017.5 |
| 20260504002624 | 59 | 189 | 0.0 | 0.9 | 0.00 | 0.00 | 0.00 | 56 | 1017.3 |